Time,TemperatureF,DewpointF,PressureIn,WindDirection,WindDirectionDegrees,WindSpeedMPH,WindSpeedGustMPH,Humidity,HourlyPrecipIn,Conditions,Clouds,dailyrainin,SoftwareType,DateUTC
2013-04-15 00:42:00,43.5,40.0,29.86,East,79,0.0,2.0,88,0.00,,,0.00,weatherlink.com 1.10,2013-04-15 07:42:00,
2013-04-15 00:57:00,43.4,40.0,29.86,East,84,0.0,0.0,89,0.00,,,0.00,weatherlink.com 1.10,2013-04-15 07:57:00,
2013-04-15 01:12:00,43.0,40.0,29.87,East,84,0.0,1.0,90,0.00,,,0.00,weatherlink.com 1.10,2013-04-15 08:12:00,
2013-04-15 01:27:00,42.9,40.0,29.87,East,84,0.0,0.0,90,0.00,,,0.00,weatherlink.com 1.10,2013-04-15 08:27:00,
2013-04-15 01:42:00,43.5,41.0,29.87,East,84,0.0,2.0,91,0.00,,,0.00,weatherlink.com 1.10,2013-04-15 08:42:00,
2013-04-15 01:57:00,43.7,41.0,29.86,East,80,0.0,3.0,90,0.00,,,0.00,weatherlink.com 1.10,2013-04-15 08:57:00,
2013-04-15 02:12:00,43.4,41.0,29.86,East,80,0.0,0.0,90,0.00,,,0.00,weatherlink.com 1.10,2013-04-15 09:12:00,
2013-04-15 02:27:00,43.6,41.0,29.87,NE,53,0.0,4.0,90,0.00,,,0.00,weatherlink.com 1.10,2013-04-15 09:27:00,
2013-04-15 02:42:00,43.9,41.0,29.86,NE,54,0.0,2.0,89,0.00,,,0.00,weatherlink.com 1.10,2013-04-15 09:42:00,
2013-04-15 02:57:00,44.0,41.0,29.86,SSW,196,0.0,3.0,89,0.00,,,0.00,weatherlink.com 1.10,2013-04-15 09:57:00,
2013-04-15 03:12:00,44.0,41.0,29.87,ESE,121,0.0,1.0,89,0.00,,,0.00,weatherlink.com 1.10,2013-04-15 10:12:00,
2013-04-15 03:27:00,43.8,41.0,29.87,NE,44,0.0,5.0,88,0.00,,,0.00,weatherlink.com 1.10,2013-04-15 10:27:00,
2013-04-15 03:42:00,43.6,40.0,29.86,ESE,117,0.0,2.0,88,0.00,,,0.00,weatherlink.com 1.10,2013-04-15 10:42:00,
2013-04-15 03:57:00,43.3,40.0,29.86,East,82,0.0,3.0,88,0.00,,,0.00,weatherlink.com 1.10,2013-04-15 10:57:00,
2013-04-15 04:12:00,42.9,40.0,29.87,East,94,0.0,2.0,89,0.00,,,0.00,weatherlink.com 1.10,2013-04-15 11:12:00,
2013-04-15 04:27:00,42.4,39.0,29.87,ENE,62,0.0,5.0,89,0.00,,,0.00,weatherlink.com 1.10,2013-04-15 11:27:00,
2013-04-15 04:42:00,42.0,39.0,29.87,East,86,0.0,2.0,89,0.00,,,0.00,weatherlink.com 1.10,2013-04-15 11:42:00,
2013-04-15 04:58:00,41.2,38.0,29.87,East,86,0.0,2.0,89,0.00,,,0.00,weatherlink.com 1.10,2013-04-15 11:58:00,
2013-04-15 05:13:00,40.2,38.0,29.87,East,86,0.0,0.0,90,0.00,,,0.00,weatherlink.com 1.10,2013-04-15 12:13:00,
2013-04-15 05:28:00,39.5,37.0,29.87,East,86,0.0,0.0,90,0.00,,,0.00,weatherlink.com 1.10,2013-04-15 12:28:00,
2013-04-15 05:43:00,38.9,37.0,29.87,East,86,0.0,0.0,91,0.00,,,0.00,weatherlink.com 1.10,2013-04-15 12:43:00,
2013-04-15 05:58:00,38.4,36.0,29.87,East,86,0.0,1.0,91,0.00,,,0.00,weatherlink.com 1.10,2013-04-15 12:58:00,
2013-04-15 06:13:00,38.0,36.0,29.88,East,86,0.0,0.0,92,0.00,,,0.00,weatherlink.com 1.10,2013-04-15 13:13:00,
2013-04-15 06:28:00,37.6,36.0,29.88,East,86,0.0,0.0,92,0.00,,,0.00,weatherlink.com 1.10,2013-04-15 13:28:00,
2013-04-15 06:43:00,37.3,35.0,29.89,East,86,0.0,0.0,92,0.00,,,0.00,weatherlink.com 1.10,2013-04-15 13:43:00,
2013-04-15 06:58:00,37.2,35.0,29.89,East,86,0.0,0.0,92,0.00,,,0.00,weatherlink.com 1.10,2013-04-15 13:58:00,
2013-04-15 07:13:00,37.1,35.0,29.90,East,86,0.0,0.0,92,0.00,,,0.00,weatherlink.com 1.10,2013-04-15 14:13:00,
2013-04-15 07:28:00,38.1,36.0,29.90,East,86,0.0,0.0,93,0.00,,,0.00,weatherlink.com 1.10,2013-04-15 14:28:00,
2013-04-15 07:43:00,40.0,38.0,29.91,East,86,0.0,1.0,93,0.00,,,0.00,weatherlink.com 1.10,2013-04-15 14:43:00,
2013-04-15 07:58:00,42.8,40.0,29.91,NNE,33,0.0,3.0,89,0.00,,,0.00,weatherlink.com 1.10,2013-04-15 14:58:00,
2013-04-15 08:13:00,43.3,39.0,29.91,East,89,0.0,2.0,84,0.00,,,0.00,weatherlink.com 1.10,2013-04-15 15:13:00,
2013-04-15 08:28:00,43.1,39.0,29.91,East,81,1.0,3.0,85,0.00,,,0.00,weatherlink.com 1.10,2013-04-15 15:28:00,
2013-04-15 08:43:00,43.6,38.0,29.92,ENE,76,0.0,3.0,82,0.00,,,0.00,weatherlink.com 1.10,2013-04-15 15:43:00,
2013-04-15 08:58:00,44.0,38.0,29.91,ENE,67,0.0,4.0,78,0.00,,,0.00,weatherlink.com 1.10,2013-04-15 15:58:00,
2013-04-15 09:13:00,45.0,38.0,29.92,ENE,71,2.0,4.0,77,0.00,,,0.00,weatherlink.com 1.10,2013-04-15 16:13:00,
2013-04-15 09:28:00,47.3,39.0,29.91,ENE,63,4.0,8.0,73,0.00,,,0.00,weatherlink.com 1.10,2013-04-15 16:28:00,
2013-04-15 09:43:00,48.3,37.0,29.92,East,101,0.0,5.0,66,0.00,,,0.00,weatherlink.com 1.10,2013-04-15 16:43:00,
2013-04-15 09:58:00,49.2,39.0,29.92,ENE,70,3.0,7.0,68,0.00,,,0.00,weatherlink.com 1.10,2013-04-15 16:58:00,
2013-04-15 10:13:00,50.8,38.0,29.92,SE,141,0.0,6.0,63,0.00,,,0.00,weatherlink.com 1.10,2013-04-15 17:13:00,
2013-04-15 10:28:00,50.8,38.0,29.92,ESE,107,1.0,4.0,63,0.00,,,0.00,weatherlink.com 1.10,2013-04-15 17:28:00,
2013-04-15 10:43:00,51.8,36.0,29.92,East,84,3.0,9.0,56,0.00,,,0.00,weatherlink.com 1.10,2013-04-15 17:43:00,
2013-04-15 10:58:00,52.5,36.0,29.91,East,86,2.0,10.0,54,0.00,,,0.00,weatherlink.com 1.10,2013-04-15 17:58:00,
2013-04-15 11:13:00,53.9,36.0,29.91,East,96,0.0,9.0,52,0.00,,,0.00,weatherlink.com 1.10,2013-04-15 18:13:00,
2013-04-15 11:43:00,55.1,37.0,29.91,SE,130,0.0,10.0,51,0.00,,,0.00,weatherlink.com 1.10,2013-04-15 18:43:00,
2013-04-15 11:58:00,55.6,34.0,29.91,SE,124,4.0,10.0,44,0.00,,,0.00,weatherlink.com 1.10,2013-04-15 18:58:00,
2013-04-15 12:14:00,55.3,34.0,29.90,ESE,112,7.0,14.0,45,0.00,,,0.00,weatherlink.com 1.10,2013-04-15 19:14:00,
2013-04-15 12:29:00,56.8,37.0,29.90,SE,126,3.0,11.0,47,0.00,,,0.00,weatherlink.com 1.10,2013-04-15 19:29:00,
2013-04-15 12:44:00,56.5,36.0,29.89,SSW,192,5.0,10.0,46,0.00,,,0.00,weatherlink.com 1.10,2013-04-15 19:44:00,
2013-04-15 13:14:00,58.0,37.0,29.89,East,95,1.0,10.0,46,0.00,,,0.00,weatherlink.com 1.10,2013-04-15 20:14:00,
2013-04-15 13:29:00,58.6,37.0,29.89,ENE,78,5.0,10.0,44,0.00,,,0.00,weatherlink.com 1.10,2013-04-15 20:29:00,
2013-04-15 13:44:00,56.5,36.0,29.88,East,90,0.0,11.0,47,0.00,,,0.00,weatherlink.com 1.10,2013-04-15 20:44:00,
2013-04-15 13:59:00,57.1,37.0,29.89,East,91,3.0,10.0,47,0.00,,,0.00,weatherlink.com 1.10,2013-04-15 20:59:00,
2013-04-15 14:14:00,58.1,37.0,29.88,NE,38,10.0,10.0,46,0.00,,,0.00,weatherlink.com 1.10,2013-04-15 21:14:00,
2013-04-15 14:29:00,58.0,37.0,29.87,ESE,106,0.0,13.0,46,0.00,,,0.00,weatherlink.com 1.10,2013-04-15 21:29:00,
2013-04-15 14:44:00,57.2,35.0,29.88,WSW,252,6.0,18.0,44,0.00,,,0.00,weatherlink.com 1.10,2013-04-15 21:44:00,
2013-04-15 14:59:00,57.0,38.0,29.87,ESE,107,0.0,17.0,49,0.00,,,0.00,weatherlink.com 1.10,2013-04-15 21:59:00,
2013-04-15 15:14:00,56.5,36.0,29.88,East,85,5.0,19.0,47,0.00,,,0.00,weatherlink.com 1.10,2013-04-15 22:14:00,
2013-04-15 15:29:00,57.1,35.0,29.88,ESE,108,8.0,10.0,43,0.00,,,0.00,weatherlink.com 1.10,2013-04-15 22:29:00,
2013-04-15 15:44:00,56.1,36.0,29.88,East,93,3.0,12.0,48,0.00,,,0.00,weatherlink.com 1.10,2013-04-15 22:44:00,
2013-04-15 15:59:00,55.8,35.0,29.87,SE,132,3.0,14.0,46,0.00,,,0.00,weatherlink.com 1.10,2013-04-15 22:59:00,
2013-04-15 16:14:00,56.2,36.0,29.86,East,94,5.0,21.0,47,0.00,,,0.00,weatherlink.com 1.10,2013-04-15 23:14:00,
2013-04-15 16:29:00,55.0,35.0,29.86,ESE,104,3.0,15.0,48,0.00,,,0.00,weatherlink.com 1.10,2013-04-15 23:29:00,
2013-04-15 16:44:00,54.9,36.0,29.87,ESE,103,0.0,11.0,49,0.00,,,0.00,weatherlink.com 1.10,2013-04-15 23:44:00,
2013-04-15 16:59:00,54.2,35.0,29.87,ESE,103,5.0,11.0,49,0.00,,,0.00,weatherlink.com 1.10,2013-04-15 23:59:00,
2013-04-15 17:14:00,53.0,34.0,29.87,SSE,167,6.0,13.0,49,0.00,,,0.00,weatherlink.com 1.10,2013-04-16 00:14:00,
2013-04-15 17:29:00,52.1,35.0,29.87,SE,136,4.0,10.0,52,0.00,,,0.00,weatherlink.com 1.10,2013-04-16 00:29:00,
2013-04-15 17:44:00,51.4,35.0,29.87,SW,215,0.0,8.0,53,0.00,,,0.00,weatherlink.com 1.10,2013-04-16 00:44:00,
2013-04-15 17:59:00,50.9,34.0,29.87,East,88,0.0,11.0,53,0.00,,,0.00,weatherlink.com 1.10,2013-04-16 00:59:00,
2013-04-15 18:14:00,50.3,36.0,29.88,SE,132,2.0,6.0,58,0.00,,,0.00,weatherlink.com 1.10,2013-04-16 01:14:00,
2013-04-15 18:29:00,50.0,35.0,29.87,ENE,65,2.0,12.0,56,0.00,,,0.00,weatherlink.com 1.10,2013-04-16 01:29:00,
2013-04-15 18:44:00,49.1,35.0,29.88,ENE,65,0.0,7.0,58,0.00,,,0.00,weatherlink.com 1.10,2013-04-16 01:44:00,
2013-04-15 18:59:00,48.8,35.0,29.88,SSE,157,0.0,6.0,60,0.00,,,0.00,weatherlink.com 1.10,2013-04-16 01:59:00,
2013-04-15 19:14:00,48.2,35.0,29.88,SE,134,3.0,11.0,60,0.00,,,0.00,weatherlink.com 1.10,2013-04-16 02:14:00,
2013-04-15 19:29:00,47.9,34.0,29.89,ENE,75,0.0,8.0,60,0.00,,,0.00,weatherlink.com 1.10,2013-04-16 02:29:00,
2013-04-15 19:44:00,47.4,35.0,29.89,East,85,1.0,5.0,62,0.00,,,0.00,weatherlink.com 1.10,2013-04-16 02:44:00,
2013-04-15 19:59:00,46.7,35.0,29.90,ENE,67,2.0,8.0,63,0.00,,,0.00,weatherlink.com 1.10,2013-04-16 02:59:00,
2013-04-15 20:14:00,46.0,35.0,29.91,East,90,0.0,3.0,66,0.00,,,0.00,weatherlink.com 1.10,2013-04-16 03:14:00,
2013-04-15 20:29:00,45.0,35.0,29.92,NNE,22,0.0,3.0,68,0.00,,,0.00,weatherlink.com 1.10,2013-04-16 03:29:00,
2013-04-15 20:44:00,44.4,35.0,29.92,East,93,1.0,3.0,69,0.00,,,0.00,weatherlink.com 1.10,2013-04-16 03:44:00,
2013-04-15 20:59:00,44.7,35.0,29.93,East,80,0.0,6.0,69,0.00,,,0.00,weatherlink.com 1.10,2013-04-16 03:59:00,
2013-04-15 21:14:00,44.4,34.0,29.94,South,183,0.0,4.0,68,0.00,,,0.00,weatherlink.com 1.10,2013-04-16 04:14:00,
2013-04-15 21:29:00,44.4,34.0,29.94,SSW,194,1.0,8.0,68,0.00,,,0.00,weatherlink.com 1.10,2013-04-16 04:29:00,
2013-04-15 21:44:00,44.1,34.0,29.95,ENE,70,3.0,7.0,68,0.00,,,0.00,weatherlink.com 1.10,2013-04-16 04:44:00,
2013-04-15 21:59:00,43.8,34.0,29.96,East,83,2.0,3.0,69,0.00,,,0.00,weatherlink.com 1.10,2013-04-16 04:59:00,
2013-04-15 22:14:00,43.1,34.0,29.97,East,80,0.0,2.0,70,0.00,,,0.00,weatherlink.com 1.10,2013-04-16 05:14:00,
2013-04-15 22:29:00,42.4,34.0,29.97,ENE,71,0.0,4.0,72,0.00,,,0.00,weatherlink.com 1.10,2013-04-16 05:29:00,
2013-04-15 22:44:00,41.6,34.0,29.97,SE,127,0.0,1.0,74,0.00,,,0.00,weatherlink.com 1.10,2013-04-16 05:44:00,
2013-04-15 22:59:00,40.3,33.0,29.97,SE,127,0.0,2.0,76,0.00,,,0.00,weatherlink.com 1.10,2013-04-16 05:59:00,
2013-04-15 23:14:00,39.5,33.0,29.98,SE,127,0.0,0.0,77,0.00,,,0.00,weatherlink.com 1.10,2013-04-16 06:14:00,
2013-04-15 23:29:00,38.8,33.0,29.98,SE,127,0.0,0.0,79,0.00,,,0.00,weatherlink.com 1.10,2013-04-16 06:29:00,
2013-04-15 23:44:00,38.3,33.0,29.98,SE,127,0.0,1.0,80,0.00,,,0.00,weatherlink.com 1.10,2013-04-16 06:44:00,
2013-04-15 23:59:00,37.9,33.0,29.98,SE,127,0.0,0.0,81,0.00,,,0.00,weatherlink.com 1.10,2013-04-16 06:59:00,